EW5546 Weather Reports


time (UTC)temp
F
wind
direction
speed
knots
gust
knots
rain 1hr
in
rain 24hr
in
rain mn
in
humidity
%
barometer
mb
20260905131525 70 263 1.7 2.6 0.00 0.08 0.00 40 1011.0
20260905130523 71 33 1.7 1.7 0.00 0.08 0.00 39 1011.0
20260905125528 72 273 2.6 3.5 0.00 0.08 0.00 40 1010.0
20260905124540 72 195 1.7 2.6 0.00 0.08 0.00 40 1010.3
20260905123520 71 232 1.7 2.6 0.00 0.08 0.00 41 1011.0
20260905122522 71 239 0.9 2.6 0.00 0.08 0.00 41 1011.0
20260905121523 71 210 0.9 1.7 0.00 0.08 0.00 41 1011.0
20260905120522 70 228 1.7 1.7 0.00 0.08 0.00 41 1011.0
20260905115522 70 208 2.6 3.5 0.00 0.08 0.00 41 1011.0
20260905114522 70 132 1.7 6.1 0.00 0.08 0.00 41 1010.7
20260905113527 70 191 0.9 1.7 0.00 0.08 0.00 42 1010.0
20260905112517 71 239 2.6 5.2 0.00 0.08 0.00 43 1010.0
20260905111523 70 251 1.7 1.7 0.00 0.08 0.00 43 1010.0
20260905110543 70 240 1.7 1.7 0.00 0.08 0.00 43 1010.0
20260905105522 69 224 1.7 3.5 0.00 0.08 0.00 44 1010.0
20260905104523 69 205 2.6 3.5 0.00 0.08 0.00 45 1010.0
20260905103542 69 203 1.7 3.5 0.00 0.08 0.00 45 1010.0
20260905102523 68 228 1.7 3.5 0.00 0.08 0.00 46 1010.0
20260905101537 67 189 1.7 2.6 0.00 0.08 0.00 47 1010.0
20260905100527 67 89 0.9 1.7 0.00 0.08 0.00 47 1010.0
20260905095524 67 106 1.7 3.5 0.00 0.08 0.00 47 1010.0
20260905094526 68 136 2.6 5.2 0.00 0.08 0.00 47 1010.0
20260905093522 68 213 1.7 2.6 0.00 0.08 0.00 46 1010.0
20260905092523 69 235 2.6 4.3 0.00 0.08 0.00 47 1010.0
20260905091522 68 133 1.7 2.6 0.00 0.08 0.00 48 1010.0
20260905090522 67 278 1.7 3.5 0.00 0.08 0.00 50 1010.0
20260905085522 67 210 1.7 2.6 0.00 0.08 0.00 50 1010.0
20260905084516 67 234 1.7 2.6 0.00 0.08 0.00 52 1010.0
20260905083525 66 179 1.7 2.6 0.00 0.08 0.00 53 1010.0
20260905082524 66 175 1.7 3.5 0.00 0.08 0.00 54 1010.0
20260905081526 66 236 0.9 1.7 0.00 0.08 0.00 55 1010.0
20260905080524 65 208 1.7 2.6 0.00 0.08 0.00 56 1010.0
20260905075558 65 164 0.9 2.6 0.00 0.08 0.00 57 1010.0
20260905074524 65 153 1.7 3.5 0.00 0.08 0.00 57 1009.7
20260905073522 65 241 0.9 2.6 0.00 0.08 0.00 57 1009.0
20260905072516 65 241 0.9 1.7 0.00 0.08 0.00 58 1009.0
20260905071523 64 188 1.7 2.6 0.00 0.08 0.00 58 1009.0
20260905070557 64 230 1.7 1.7 0.00 0.08 0.00 58 1009.0
20260905065526 64 194 1.7 2.6 0.00 0.08 0.00 58 1009.0
20260905064522 64 100 1.7 1.7 0.00 0.08 0.00 59 1009.0
20260905063531 64 245 1.7 3.5 0.00 0.08 0.00 59 1009.0
20260905062521 64 172 1.7 3.5 0.00 0.08 0.00 58 1008.0
20260905061523 64 240 1.7 2.6 0.00 0.08 0.00 59 1008.0
20260905060525 63 202 1.7 2.6 0.00 0.08 0.00 60 1008.0
20260905055522 63 211 1.7 2.6 0.00 0.08 0.00 60 1008.0
20260905054522 63 213 1.7 3.5 0.00 0.08 0.00 60 1008.0
20260905053525 63 230 1.7 2.6 0.00 0.08 0.00 60 1008.0
20260905052523 63 19 2.6 6.1 0.00 0.08 0.00 60 1008.0
20260905051523 63 226 1.7 3.5 0.00 0.08 0.00 61 1008.0
20260905050544 63 210 1.7 2.6 0.00 0.08 0.00 62 1008.0
20260905045524 63 2 0.9 3.5 0.00 0.08 0.00 63 1007.0
20260905044524 63 206 0.9 1.7 0.00 0.08 0.00 65 1007.0
20260905043603 63 97 1.7 3.5 0.00 0.08 0.00 66 1007.0
20260905042522 63 79 2.6 4.3 0.00 0.08 0.00 67 1007.0
20260905041522 63 31 1.7 3.5 0.00 0.08 0.00 68 1006.6
20260905040522 63 99 1.7 4.3 0.00 0.08 0.00 70 1005.9
20260905035525 63 66 2.6 5.2 0.00 0.08 0.00 70 1005.9
20260905034520 63 49 2.6 3.5 0.00 0.08 0.00 70 1005.9
20260905033523 63 157 0.9 3.5 0.00 0.08 0.00 69 1005.9
20260905032517 64 280 1.7 2.6 0.00 0.08 0.00 70 1004.9
20260905031517 64 211 0.9 1.7 0.00 0.08 0.00 70 1005.3
20260905030522 64 228 0.9 1.7 0.00 0.08 0.00 70 1005.9
20260905025523 64 217 1.7 2.6 0.00 0.08 0.00 70 1004.9
20260905024516 64 209 1.7 2.6 0.00 0.08 0.00 70 1005.3
20260905023544 64 229 1.7 3.5 0.00 0.08 0.00 70 1005.9
20260905022523 65 220 1.7 3.5 0.00 0.08 0.00 70 1004.9
20260905021542 65 226 0.9 1.7 0.00 0.08 0.00 70 1004.9
20260905020517 65 221 1.7 3.5 0.00 0.08 0.00 70 1004.9
20260905015517 65 222 1.7 3.5 0.00 0.08 0.00 70 1004.9
20260905014522 65 201 1.7 3.5 0.00 0.08 0.00 71 1004.9
20260905013523 65 227 1.7 1.7 0.00 0.08 0.00 71 1004.9
20260905012543 66 228 1.7 1.7 0.00 0.08 0.00 72 1004.9
20260905011543 66 224 1.7 3.5 0.00 0.08 0.00 72 1004.6
20260905010522 66 223 1.7 2.6 0.00 0.08 0.00 73 1003.9
20260905005544 66 252 0.9 1.7 0.00 0.08 0.00 73 1003.9
20260905004602 66 204 1.7 2.6 0.00 0.08 0.00 75 1003.9
20260905003523 66 220 0.9 2.6 0.00 0.08 0.00 76 1003.9
20260905002524 66 205 1.7 1.7 0.00 0.08 0.00 76 1003.9
20260905001519 66 223 0.9 2.6 0.00 0.08 0.00 76 1003.9
20260905000525 66 222 0.9 1.7 0.00 0.08 0.00 76 1003.9
20260904235522 66 206 0.9 1.7 0.00 0.08 0.00 77 1003.9
20260904234524 66 232 0.9 1.7 0.00 0.08 0.00 77 1003.9
20260904233541 66 203 0.9 2.6 0.00 0.08 0.00 78 1003.9
20260904232522 66 218 0.9 1.7 0.00 0.08 0.00 78 1003.9
20260904231547 66 221 0.9 1.7 0.00 0.08 0.00 78 1003.9
20260904230558 66 212 0.9 1.7 0.00 0.08 0.00 77 1003.9
20260904225522 66 203 0.0 0.9 0.00 0.08 0.00 76 1003.9
20260904224522 66 213 0.0 1.7 0.00 0.08 0.00 76 1003.9
20260904223523 66 248 0.9 0.9 0.00 0.08 0.00 75 1002.9
20260904222524 65 252 0.9 0.9 0.00 0.08 0.00 75 1002.9
20260904221517 65 237 0.9 1.7 0.00 0.08 0.00 74 1002.9
20260904220516 65 203 0.0 0.9 0.00 0.08 0.00 74 1002.9
20260904215517 66 258 0.9 1.7 0.00 0.08 0.08 73 1003.8
20260904214523 66 203 0.9 1.7 0.00 0.08 0.08 73 1003.9
20260904214042 66 203 0.0 0.9 0.00 0.08 0.08 73 1003.1
20260904213023 66 218 1.7 2.6 0.00 0.08 0.08 73 1002.9
20260904212019 66 302 0.9 2.6 0.00 0.08 0.08 73 1002.9
20260904211104 66 237 1.7 3.5 0.00 0.08 0.08 72 1002.9
20260904210022 66 243 0.9 1.7 0.00 0.08 0.08 72 1002.9
20260904205022 67 248 0.0 1.7 0.00 0.08 0.08 72 1002.9
20260904204022 67 240 0.9 1.7 0.00 0.08 0.08 73 1002.9
20260904203043 67 220 0.9 1.7 0.00 0.08 0.08 72 1002.9
20260904202042 68 232 0.9 1.7 0.08 0.08 0.08 72 1002.9
20260904201117 69 216 1.7 2.6 0.08 0.08 0.08 72 1002.9
20260904200016 69 226 1.7 2.6 0.08 0.08 0.08 71 1002.9
20260904195018 70 268 1.7 2.6 0.08 0.08 0.08 67 1001.9
20260904194022 71 234 1.7 1.7 0.00 0.00 0.00 64 1001.9
20260904193024 71 239 1.7 2.6 0.00 0.00 0.00 60 1001.9
20260904192024 72 202 1.7 2.6 0.00 0.00 0.00 56 1001.9
20260904191024 72 190 3.5 5.2 0.00 0.00 0.00 56 1001.9
20260904190024 72 218 1.7 1.7 0.00 0.00 0.00 55 1001.9
20260904185042 72 232 1.7 2.6 0.00 0.00 0.00 55 1001.9
20260904184021 72 208 1.7 4.3 0.00 0.00 0.00 55 1001.9
20260904183022 71 224 0.9 1.7 0.00 0.00 0.00 55 1001.9
20260904182022 71 206 1.7 3.5 0.00 0.00 0.00 55 1001.9
20260904181022 71 230 1.7 1.7 0.00 0.00 0.00 55 1002.7
20260904180023 71 226 0.9 2.6 0.00 0.00 0.00 55 1002.9
20260904175017 71 212 0.9 1.7 0.00 0.00 0.00 55 1002.9
20260904174026 71 214 0.9 1.7 0.00 0.00 0.00 54 1002.9
20260904173024 71 175 1.7 1.7 0.00 0.00 0.00 54 1002.9
20260904172022 72 219 1.7 2.6 0.00 0.00 0.00 53 1002.9
20260904171016 72 243 0.9 1.7 0.00 0.00 0.00 52 1003.8
20260904170022 72 219 1.7 3.5 0.00 0.00 0.00 52 1003.9
20260904165042 72 233 1.7 2.6 0.00 0.00 0.00 51 1003.9
20260904164022 72 246 2.6 3.5 0.00 0.00 0.00 50 1003.9
20260904163022 72 238 1.7 2.6 0.00 0.00 0.00 50 1003.9
20260904162022 72 229 1.7 3.5 0.00 0.00 0.00 49 1004.9
20260904161024 72 222 1.7 2.6 0.00 0.00 0.00 49 1004.9
20260904160024 72 230 1.7 2.6 0.00 0.00 0.00 49 1004.9
20260904155026 72 174 1.7 2.6 0.00 0.00 0.00 49 1004.9
20260904154022 72 258 0.9 1.7 0.00 0.00 0.00 48 1004.9
20260904153024 72 218 0.9 2.6 0.00 0.00 0.00 48 1004.9
20260904152035 72 200 1.7 2.6 0.00 0.00 0.00 48 1004.9
20260904151102 72 231 0.9 1.7 0.00 0.00 0.00 48 1005.6
20260904145022 73 205 1.7 2.6 0.00 0.00 0.00 48 1005.9
20260904144022 73 193 0.9 1.7 0.00 0.00 0.00 48 1005.9
20260904143039 73 216 1.7 1.7 0.00 0.00 0.00 47 1005.9
20260904142022 73 223 1.7 2.6 0.00 0.00 0.00 47 1005.9
20260904141025 73 219 1.7 3.5 0.00 0.00 0.00 47 1006.6
20260904140022 73 212 1.7 3.5 0.00 0.00 0.00 47 1007.0
20260904135022 73 212 2.6 3.5 0.00 0.00 0.00 47 1007.0
20260904134022 73 214 2.6 3.5 0.00 0.00 0.00 47 1007.0
20260904133015 73 215 2.6 3.5 0.00 0.00 0.00 48 1007.0